Weather History for Kirksville, MO

Change the Weather History Date:

Thursday, January 17, 2013

  Actual Average Record
Temperature  
Mean Temperature 32 °F 26 °F  
Max Temperature 41 °F 35 °F 61 °F (1952)
Min Temperature 22 °F 17 °F -14 °F (1977)
Degree Days  
Heating Degree Days 33 39  
Month to date heating degree days 632 663  
Since 1 July heating degree days 2874 3006  
Cooling Degree Days 0 0  
Month to date cooling degree days 0 0  
Year to date cooling degree days 0 0  
Moisture  
Dew Point 22 °F    
Average Humidity 67    
Maximum Humidity 92    
Minimum Humidity 41    
Precipitation  
Precipitation 0.00 in 0.05 in 0.47 in (1941)
Month to date precipitation 0.29 0.56  
Year to date precipitation 0.29 0.56  
Sea Level Pressure  
Sea Level Pressure 30.38 in    
Wind  
Wind Speed 8 mph (North)    
Max Wind Speed 16 mph    
Max Gust Speed 22 mph    
Visibility 10 miles    
Events      
T = Trace of Precipitation, MM = Missing Value Source: NWS Daily Summary

Daily Weather History Graph

Daily Weather History Graph

Search for Another Location

Airport:

Trip Planner

Search our weather history database for the weather conditions in past years. The results will help you decide how hot, cold, wet, or windy it might be!

Date:

Astronomy

Jan. 17, 2013 Rise Set
Actual Time 7:29 AM CST 5:11 PM CST
Civil Twilight 6:59 AM CST 5:41 PM CST
Nautical Twilight 6:26 AM CST 6:14 PM CST
Astronomical Twilight 5:54 AM CST 6:47 PM CST
Moon 10:36 AM CST (1/17) No Moon Set
Length of Visible Light 10h 41m
Length of Day
9h 42m
Waxing Crescent, 38% of the Moon is Illuminated
Jan 17
Waxing Crescent
Jan 18
First Quarter
Jan 26
Full
Feb 3
Last Quarter
Feb 10
New

Hourly Weather History & Observations

Time (CST) Temp. Windchill Dew Point Humidity Pressure Visibility Wind Dir Wind Speed Gust Speed Precip Events Conditions
12:55 AM 32.0 °F 24.8 °F 28.0 °F 85% 30.21 in 10.0 mi North 8.1 mph - N/A   Clear
1:47 AM 33.8 °F 25.3 °F 30.2 °F 87% 30.19 in 10.0 mi North 11.5 mph - N/A   Mostly Cloudy
1:55 AM 33.1 °F 24.9 °F 28.9 °F 85% 30.23 in 10.0 mi North 10.4 mph - N/A   Mostly Cloudy
2:02 AM 33.8 °F 24.3 °F 28.4 °F 81% 30.20 in 10.0 mi North 13.8 mph 18.4 mph N/A   Scattered Clouds
2:35 AM 32.0 °F 23.6 °F 28.4 °F 87% 30.21 in 10.0 mi North 10.4 mph - N/A   Mostly Cloudy
2:51 AM 30.2 °F 19.3 °F 26.6 °F 86% 30.23 in 10.0 mi North 15.0 mph - N/A   Mostly Cloudy
2:55 AM 32.0 °F 21.2 °F 28.0 °F 85% 30.27 in 10.0 mi North 16.1 mph 20.7 mph N/A   Mostly Cloudy
3:55 AM 30.9 °F 20.7 °F 27.0 °F 85% 30.28 in 10.0 mi North 13.8 mph - N/A   Overcast
4:55 AM 28.9 °F 22.8 °F 26.1 °F 89% 30.32 in 10.0 mi NNW 5.8 mph - N/A   Overcast
5:55 AM 28.0 °F 19.3 °F 24.1 °F 85% 30.35 in 10.0 mi North 9.2 mph - N/A   Overcast
6:46 AM 24.8 °F 14.6 °F 21.2 °F 86% 30.34 in 10.0 mi North 10.4 mph - N/A   Scattered Clouds
6:55 AM 25.0 °F 14.2 °F 21.0 °F 85% 30.39 in 10.0 mi North 11.5 mph 17.3 mph N/A   Partly Cloudy
7:55 AM 23.0 °F 12.4 °F 19.0 °F 85% 30.42 in 10.0 mi North 10.4 mph - N/A   Clear
8:55 AM 25.0 °F 14.2 °F 19.0 °F 78% 30.46 in 10.0 mi North 11.5 mph - N/A   Clear
9:55 AM 28.9 °F 21.1 °F 18.0 °F 64% 30.48 in 10.0 mi NNW 8.1 mph - N/A   Clear
10:55 AM 30.9 °F 22.2 °F 15.1 °F 52% 30.48 in 10.0 mi North 10.4 mph - N/A   Clear
11:55 AM 35.1 °F 30.1 °F 16.0 °F 46% 30.46 in 10.0 mi North 5.8 mph - N/A   Clear
12:55 PM 37.9 °F 30.0 °F 17.1 °F 43% 30.45 in 10.0 mi North 12.7 mph - N/A   Clear
1:55 PM 39.9 °F 31.8 °F 19.0 °F 43% 30.43 in 10.0 mi North 15.0 mph 19.6 mph N/A   Clear
2:55 PM 41.0 °F 36.4 °F 19.9 °F 43% 30.43 in 10.0 mi NNW 6.9 mph - N/A   Clear
3:55 PM 39.9 °F 35.1 °F 19.9 °F 45% 30.45 in 10.0 mi NW 6.9 mph - N/A   Clear
4:55 PM 37.0 °F 33.3 °F 19.9 °F 50% 30.46 in 10.0 mi NNW 4.6 mph - N/A   Clear
5:55 PM 30.0 °F 26.5 °F 19.0 °F 64% 30.47 in 10.0 mi West 3.5 mph - N/A   Clear
6:55 PM 28.9 °F - 19.9 °F 69% 30.48 in 10.0 mi Calm Calm - N/A   Clear
7:55 PM 25.0 °F - 18.0 °F 75% 30.49 in 10.0 mi Calm Calm - N/A   Clear
8:55 PM 24.1 °F 18.2 °F 19.0 °F 81% 30.48 in 10.0 mi South 4.6 mph - N/A   Clear
9:55 PM 26.1 °F - 21.0 °F 81% 30.47 in 10.0 mi Calm Calm - N/A   Clear
10:55 PM 25.0 °F 19.3 °F 21.9 °F 88% 30.46 in 10.0 mi SSE 4.6 mph - N/A   Clear
11:55 PM 24.1 °F 18.2 °F 19.0 °F 81% 30.46 in 10.0 mi South 4.6 mph - N/A   Clear